Location: Drummondville
(45.8830°N, 72.4830°W)
Time: 10:46:34
(UTC-05:00)

Vanguard 2 - Visible Passes

Search period start: 21 November 2017 00:00
Search period end: 01 December 2017 00:00
Orbit: 553 x 2940 km, 32.9° (Epoch: 21 November)

Date Brightness Start Highest point End Pass type
(mag) Time Alt. Az. Time Alt. Az. Time Alt. Az.
21 Nov 11.7 00:29:46 10° ESE 00:29:46 10° ESE 00:29:52 10° ESE visible
21 Nov 10.6 02:31:12 34° SSE 02:31:12 34° SSE 02:41:29 10° SE visible
21 Nov 10.8 04:32:38 21° SW 04:37:27 25° SSW 04:49:53 10° SSE visible
22 Nov 11.6 00:46:59 12° ESE 00:46:59 12° ESE 00:47:52 10° ESE visible
22 Nov 10.7 02:48:25 32° S 02:48:25 32° S 02:58:51 10° SE visible
22 Nov 11.0 04:49:51 16° WSW 04:55:17 19° SSW 05:05:39 10° S visible
23 Nov 11.5 01:04:13 13° ESE 01:04:13 13° ESE 01:05:44 10° ESE visible
23 Nov 10.7 03:05:39 28° S 03:05:39 28° S 03:15:54 10° SSE visible
23 Nov 11.2 05:07:05 10° WSW 05:13:05 14° SW 05:20:11 10° S visible
24 Nov 11.4 01:21:28 14° SE 01:21:28 14° SE 01:23:26 10° SE visible
24 Nov 10.8 03:22:54 24° SSW 03:22:54 24° SSW 03:32:32 10° SSE visible
25 Nov 11.4 01:38:43 15° SE 01:38:43 15° SE 01:40:54 10° SE visible
25 Nov 11.0 03:40:09 19° SSW 03:40:09 19° SSW 03:48:33 10° S visible
26 Nov 11.4 01:55:59 14° SSE 01:55:59 14° SSE 01:58:05 10° SE visible
26 Nov 11.2 03:57:26 14° SSW 03:57:26 14° SSW 04:03:28 10° S visible
27 Nov 11.4 02:13:15 13° SSE 02:13:15 13° SSE 02:14:52 10° SSE visible
28 Nov 11.4 02:30:31 11° S 02:30:31 11° S 02:31:03 10° SSE visible
